Regional Weather Roundup
Issued by NWS Little Rock, AR

Home | Current Version | Previous Version | Text Only | Print | Product List | Glossary On
Versions: 1 2 3 4 5 6 7 8 9 10 11 12 13 14 15 16 17 18 19 20 21 22 23 24 25 26 27 28 29 30 31 32 33 34 35 36 37 38 39 40 41 42 43 44 45 46 47 48 49 50
000
ASUS44 KLZK 010705
RWRLZK

WEATHER ROUNDUP FOR ARKANSAS
NATIONAL WEATHER SERVICE LITTLE ROCK AR
200 AM CDT MON SEP 01 2014

NOTE: "FAIR" INDICATES FEW OR NO CLOUDS BELOW 12,000 FEET WITH NO
SIGNIFICANT WEATHER AND/OR OBSTRUCTIONS TO VISIBILITY.

ARZ001-003-010-029-010800-
NORTHWEST ARKANSAS

CITY           SKY/WX    TMP DP  RH WIND       PRES   REMARKS
FAYETTEVILLE   CLEAR     75  71  87 S10G20    29.89F
FORT SMITH     CLEAR     78  72  81 S6        29.87F
HARRISON       PTCLDY    76  71  85 S9        29.92F
BENTONVILLE    CLEAR     77  70  78 S10G18    29.89S
ROGERS         PTCLDY    76  70  82 S12       29.90S
HIGHFILL       CLEAR     76  70  82 S14       29.88F
$$

ARZ004-005-016-010800-
NORTH CENTRAL ARKANSAS

CITY           SKY/WX    TMP DP  RH WIND       PRES   REMARKS
BATESVILLE     MOCLDY    75  72  88 S8        29.96S
FLIPPIN        PTCLDY    75  68  78 S7        29.91F
MTN HOME       PTCLDY    74  71  91 S7        29.91F
$$

ARZ040-041-010800-
WEST CENTRAL ARKANSAS

CITY           SKY/WX    TMP DP  RH WIND       PRES   REMARKS
MENA           CLEAR     79  72  78 S7        29.96F
MOUNT IDA      CLEAR     77  69  76 CALM      29.95R
$$

ARZ009-017-025-026-028-010800-
NORTHEAST ARKANSAS

CITY           SKY/WX    TMP DP  RH WIND       PRES   REMARKS
CORNING          N/A     75  73  94 S13       29.95S
JONESBORO      CLEAR     74  71  91 S8        29.96R
NEWPORT        CLEAR     75  73  93 S10       29.97R
WALNUT RIDGE   CLEAR     73  66  78 S10       29.95S
BLYTHEVILLE    CLEAR     75  74  96 S8        29.98R
$$

ARZ022-023-033-042-044-010800-
CENTRAL ARKANSAS

CITY           SKY/WX    TMP DP  RH WIND       PRES   REMARKS
LITTLE ROCK    PTCLDY    76  71  85 S10       29.96S
N LITTLE ROCK    N/A     76  73  89 SW9G16    29.96S
JACKSONVILLE   PTCLDY    76  72  88 S5        29.97R
SEARCY         CLEAR     75  73  93 MISG      29.97R
HOT SPRINGS    CLEAR     76  72  87 S7        29.98R
RUSSELLVILLE   CLEAR     76  71  85 VRB3      29.93S
CLINTON        FAIR      75  73  94 S3        29.96S
$$

ARZ036-010800-
EAST ARKANSAS

CITY           SKY/WX    TMP DP  RH WIND       PRES   REMARKS
WEST MEMPHIS   CLEAR     75  75 100 S8        29.97F
$$

ARZ050-053-066-070-073-010800-
SOUTHWEST ARKANSAS

CITY           SKY/WX    TMP DP  RH WIND       PRES   REMARKS
ARKADELPHIA    FAIR      73  73 100 CALM      29.98R FOG
CAMDEN         CLEAR     73  72  94 S3        29.98R FOG
TEXARKANA      CLEAR     75  72  90 S8        29.96S
EL DORADO      CLEAR     73  72  96 S3        29.99S
DE QUEEN       CLEAR     75  71  87 S3        29.94R
$$

ARZ056-057-069-010800-
SOUTHEAST ARKANSAS

CITY           SKY/WX    TMP DP  RH WIND       PRES   REMARKS
PINE BLUFF     CLEAR     73  70  90 S6        29.98R
STUTTGART      CLEAR     75  72  88 S9        29.99S
MONTICELLO     CLEAR     77  72  84 SW7       29.99R

$$




USA.gov is the U.S. government's official web portal to all federal, state and local government web resources and services.